KK4PTE Weather Reports


Display with metric or nautical units.
time (UTC)temp
F
wind
direction
speed
MPH
gust
MPH
rain 1hr
in
rain 24hr
in
rain mn
in
humidity
%
barometer
mb
20260510230044 79 216 0.0 3.0 0.00 0.01 0.01 52 1015.0
20260510224543 80 113 0.0 0.0 0.00 0.01 0.01 52 1014.9
20260510223043 80 113 0.0 2.0 0.00 0.01 0.01 56 1014.9
20260510221542 80 49 3.0 7.0 0.00 0.01 0.01 53 1014.9
20260510220042 82 52 0.0 2.0 0.00 0.01 0.01 46 1014.9
20260510214549 83 16 0.0 3.0 0.00 0.01 0.01 40 1015.0
20260510213038 82 66 0.0 4.0 0.00 0.01 0.01 43 1014.9
20260510211537 82 49 2.0 7.0 0.00 0.01 0.01 39 1015.2
20260510210037 82 70 2.0 4.0 0.00 0.01 0.01 41 1015.2
20260510204538 81 297 1.0 6.0 0.00 0.01 0.01 40 1015.3
20260510203035 81 266 1.0 7.0 0.00 0.01 0.01 44 1015.5
20260510201534 83 290 0.0 1.0 0.00 0.01 0.01 40 1015.5
20260510200033 82 279 2.0 4.0 0.00 0.01 0.01 42 1015.5
20260510194535 82 312 3.0 6.0 0.00 0.01 0.01 39 1015.6
20260510193033 80 284 0.0 6.0 0.00 0.01 0.01 43 1015.8
20260510191531 81 257 7.0 11.0 0.00 0.01 0.01 42 1015.7
20260510190035 82 210 1.0 4.0 0.00 0.01 0.01 43 1015.7
20260510184530 82 185 2.0 6.0 0.00 0.01 0.01 44 1015.9
20260510183028 81 147 0.0 3.0 0.00 0.01 0.01 50 1016.0
20260510181526 81 198 1.0 5.0 0.00 0.01 0.01 44 1016.3
20260510180026 80 303 1.0 3.0 0.00 0.01 0.01 46 1016.3
20260510174523 80 141 2.0 4.0 0.00 0.01 0.01 49 1016.4
20260510173025 80 193 0.0 9.0 0.00 0.01 0.01 50 1016.5
20260510171522 79 170 3.0 5.0 0.00 0.01 0.01 46 1016.5
20260510170021 78 175 0.0 4.0 0.00 0.01 0.01 49 1016.7
20260510164524 78 225 1.0 6.0 0.00 0.01 0.01 53 1016.6
20260510163013 77 233 0.0 5.0 0.00 0.01 0.01 55 1016.5
20260510161511 77 235 1.0 6.0 0.00 0.01 0.01 61 1016.6
20260510160009 76 248 2.0 8.0 0.00 0.01 0.01 63 1016.7
20260510154505 75 165 2.0 6.0 0.00 0.01 0.01 69 1016.7
20260510153003 75 281 4.0 10.0 0.00 0.01 0.01 69 1016.7
20260510151558 74 303 1.0 9.0 0.00 0.01 0.01 73 1016.6
20260510150120 73 283 1.0 7.0 0.00 0.01 0.01 76 1016.8
20260510144553 73 315 2.0 8.0 0.00 0.01 0.01 77 1016.7
20260510143049 71 326 2.0 8.0 0.00 0.01 0.01 80 1016.7
20260510141544 69 295 0.0 0.0 0.00 0.01 0.01 84 1016.7
20260510140041 67 224 0.0 0.0 0.00 0.01 0.01 86 1016.6
20260510134538 66 224 0.0 3.0 0.00 0.01 0.01 87 1016.6
20260510133035 65 231 0.0 4.0 0.00 0.01 0.01 88 1016.7
20260510131531 63 175 0.0 0.0 0.00 0.01 0.01 89 1016.7
20260510130028 62 169 0.0 0.0 0.00 0.01 0.01 89 1016.6
20260510124528 60 168 0.0 0.0 0.00 0.01 0.01 89 1016.4
20260510123022 58 180 0.0 0.0 0.00 0.01 0.01 88 1016.2
20260510121520 56 180 0.0 0.0 0.00 0.01 0.01 88 1016.0
20260510120025 56 180 0.0 0.0 0.00 0.01 0.01 88 1016.0
20260510114525 56 180 0.0 0.0 0.00 0.01 0.01 88 1015.6
20260510113014 56 180 0.0 0.0 0.00 0.01 0.01 88 1015.2
20260510111513 56 180 0.0 0.0 0.00 0.01 0.01 88 1015.2
20260510110014 56 180 0.0 0.0 0.00 0.01 0.01 87 1015.0
20260510104511 55 180 0.0 0.0 0.00 0.01 0.01 87 1014.8
20260510103007 56 180 0.0 0.0 0.00 0.01 0.01 87 1014.8
20260510101505 57 180 0.0 0.0 0.00 0.01 0.01 88 1014.5
20260510100003 57 180 0.0 0.0 0.00 0.01 0.01 87 1014.3
20260510094507 56 180 0.0 0.0 0.01 0.01 0.01 87 1014.1
20260510093121 58 180 0.0 0.0 0.01 0.01 0.01 87 1014.2
20260510091559 58 180 0.0 0.0 0.01 0.01 0.01 87 1014.1
20260510090059 59 180 0.0 0.0 0.01 0.01 0.01 87 1014.0
20260510084557 59 180 0.0 0.0 0.00 0.00 0.00 87 1014.0
20260510083106 59 180 0.0 0.0 0.00 0.00 0.00 87 1014.1
20260510081555 59 180 0.0 0.0 0.00 0.00 0.00 87 1013.9
20260510080056 59 180 0.0 0.0 0.00 0.00 0.00 87 1013.6
20260510074551 59 180 0.0 0.0 0.00 0.00 0.00 87 1013.6
20260510073053 59 180 0.0 0.0 0.00 0.00 0.00 87 1013.6
20260510071544 59 180 0.0 0.0 0.00 0.00 0.00 87 1013.5
20260510070041 58 180 0.0 0.0 0.00 0.00 0.00 87 1013.3
20260510064541 58 180 0.0 0.0 0.00 0.00 0.00 87 1013.4
20260510063039 58 180 0.0 0.0 0.00 0.00 0.00 87 1013.3
20260510061537 58 180 0.0 0.0 0.00 0.00 0.00 87 1013.3
20260510060042 58 180 0.0 0.0 0.00 0.00 0.00 87 1013.4
20260510054539 57 180 0.0 0.0 0.00 0.00 0.00 86 1013.3
20260510053030 57 180 0.0 0.0 0.00 0.00 0.00 86 1013.3
20260510051529 56 180 0.0 0.0 0.00 0.00 0.00 86 1013.4
20260510050026 56 180 0.0 0.0 0.00 0.00 0.00 85 1013.4
20260510044526 56 180 0.0 0.0 0.00 0.00 0.00 85 1013.5
20260510043028 57 180 0.0 0.0 0.00 0.00 0.00 85 1013.4
20260510041524 57 180 0.0 0.0 0.00 0.00 0.00 85 1013.4
20260510040023 58 180 0.0 0.0 0.00 0.00 0.00 84 1013.4
20260510034524 58 180 0.0 0.0 0.00 0.00 0.00 84 1013.3
20260510033021 59 180 0.0 0.0 0.00 0.00 0.00 84 1013.3
20260510031520 59 180 0.0 0.0 0.00 0.00 0.00 83 1013.3
20260510030020 60 180 0.0 0.0 0.00 0.00 0.00 82 1013.2
20260510024518 60 180 0.0 0.0 0.00 0.00 0.00 82 1013.1
20260510023017 60 180 0.0 0.0 0.00 0.00 0.00 81 1013.0
20260510021514 61 180 0.0 0.0 0.00 0.00 0.00 81 1012.7
20260510020013 62 180 0.0 0.0 0.00 0.00 0.00 80 1012.3
20260510014511 63 180 0.0 0.0 0.00 0.00 0.00 79 1012.0
20260510013009 64 180 0.0 0.0 0.00 0.00 0.00 78 1011.8
20260510011510 65 180 0.0 0.0 0.00 0.00 0.00 75 1011.7
20260510010008 67 180 0.0 0.0 0.00 0.00 0.00 74 1011.5
20260510004506 69 180 0.0 0.0 0.00 0.00 0.00 69 1011.2
20260510003016 72 287 0.0 0.0 0.00 0.00 0.00 64 1011.0
20260510001505 74 287 0.0 2.0 0.00 0.00 0.00 58 1010.9
20260510000006 77 276 0.0 2.0 0.00 0.00 0.00 54 1010.9
20260509234505 78 293 1.0 4.0 0.00 0.00 0.00 55 1010.9
20260509233005 78 291 1.0 3.0 0.00 0.00 0.00 56 1010.8
20260509231511 77 289 0.0 1.0 0.00 0.00 0.00 53 1010.9